Location: Nashville
(36.1660°N, 86.7840°W)
Time: 03:30:50
(UTC-05:00)

CUTE 1.7 + AOD 2 - Visible Passes

Search period start: 16 May 2022 00:00
Search period end: 26 May 2022 00:00
Orbit: 591 x 608 km, 97.7° (Epoch: 16 May)

Date Brightness Start Highest point End Pass type
(mag) Time Alt. Az. Time Alt. Az. Time Alt. Az.
16 May ? 04:51:40 10° N 04:55:54 69° WNW 05:00:08 10° SSW visible
17 May ? 03:29:29 10° ENE 03:30:53 11° E 03:32:17 10° ESE visible
17 May ? 05:02:43 10° N 05:06:51 50° WNW 05:10:57 10° SSW visible
18 May ? 03:39:22 10° NE 03:41:56 16° E 03:44:30 10° SE visible
19 May ? 03:49:44 10° NE 03:52:59 21° E 03:56:12 10° SE visible
20 May ? 04:00:19 10° NE 04:03:59 28° E 04:07:39 10° SSE visible
21 May ? 04:11:00 10° NNE 04:14:59 37° E 04:18:56 10° SSE visible
22 May ? 04:21:47 10° NNE 04:25:57 51° E 04:30:06 10° S visible
23 May ? 04:32:38 10° NNE 04:36:54 70° ESE 04:41:08 10° S visible
24 May ? 04:43:32 10° N 04:47:50 85° WNW 04:52:05 10° SSW visible
25 May ? 04:54:30 10° N 04:58:44 62° WNW 05:02:56 10° SSW visible
